Date,TemperatureHighF,TemperatureAvgF,TemperatureLowF,DewpointHighF,DewpointAvgF,DewpointLowF,HumidityHigh,HumidityAvg,HumidityLow,PressureMaxIn,PressureMinIn,WindSpeedMaxMPH,WindSpeedAvgMPH,GustSpeedMaxMPH,PrecipitationSumIn
2013-4-1,62.6,40.2,24.8,28.8,24.6,19.5,87,59,20,30.20,29.92,3,0,3,0.00
2013-4-2,59.9,44.4,29.7,28.5,24.2,21.4,77,49,23,30.01,29.82,6,0,6,0.00
2013-4-3,45.7,34.8,30.9,31.5,28.7,25.7,91,79,46,30.19,29.82,9,0,9,0.01
2013-4-4,46.8,36.3,30.4,34.0,30.0,26.1,89,78,53,30.17,29.63,1,0,2,0.00
2013-4-5,53.8,41.1,30.1,39.4,32.7,23.9,92,75,34,29.75,29.51,7,0,7,0.00
2013-4-6,42.9,31.3,28.1,31.1,27.3,25.4,92,86,60,29.80,29.68,12,0,12,0.00
2013-4-7,29.3,26.5,20.2,27.0,22.3,15.3,92,84,74,30.15,29.74,3,0,10,0.00
2013-4-8,26.9,20.8,16.4,16.6,13.7,10.5,82,74,63,30.47,30.15,7,0,7,0.00
2013-4-9,45.7,28.9,13.1,20.6,13.6,8.2,81,57,27,30.51,30.10,4,0,4,0.00
2013-4-10,52.8,43.4,32.0,32.0,26.4,19.6,67,51,38,30.11,29.56,7,0,7,0.00
2013-4-11,38.6,33.8,31.0,33.4,27.2,20.5,91,77,62,30.00,29.77,5,0,5,0.00
2013-4-12,46.8,32.6,21.4,24.0,19.1,13.4,88,62,26,30.17,29.54,0,0,6,0.00
2013-4-13,40.2,31.3,25.0,30.5,25.2,21.1,89,78,61,29.94,29.41,10,0,10,0.00
2013-4-14,27.0,23.9,20.6,21.1,18.8,15.7,87,81,71,30.27,29.92,9,0,9,0.00
2013-4-15,28.7,22.8,17.8,18.5,15.6,13.2,85,74,55,30.47,30.23,9,0,9,0.00
2013-4-16,33.5,25.1,19.1,32.0,18.4,13.7,86,76,57,30.55,30.43,9,0,9,0.00
2013-4-17,45.2,29.4,14.3,18.0,11.4,7.3,82,52,23,30.53,30.17,2,0,4,0.00
2013-4-18,52.5,41.4,30.9,28.0,19.5,12.0,66,43,27,30.17,29.95,4,0,4,0.00
2013-4-19,52.8,43.6,34.9,28.3,25.8,20.2,72,52,29,29.95,29.68,6,0,6,0.00
2013-4-20,45.7,34.2,22.5,32.9,24.3,18.3,89,69,36,30.24,29.71,9,0,9,0.00
2013-4-21,32.7,23.8,17.0,18.9,13.8,11.4,86,67,44,30.50,30.24,11,0,11,0.00
2013-4-22,47.4,30.3,14.4,11.6,7.3,0.6,76,44,15,30.61,30.31,4,0,4,0.00
2013-4-23,48.8,36.1,26.0,25.7,14.6,5.7,59,42,26,30.32,30.17,2,0,2,0.00
2013-4-24,51.9,40.7,25.8,21.5,17.0,11.7,67,41,22,30.26,29.84,15,0,15,0.00
2013-4-25,55.7,46.9,36.8,27.9,22.8,18.0,57,40,24,29.92,29.73,14,0,14,0.00
2013-4-26,63.1,52.7,43.1,30.6,26.1,22.2,58,37,22,29.91,29.77,15,0,15,0.00
2013-4-27,52.6,47.8,42.5,37.5,28.0,21.3,81,48,31,29.77,29.65,16,0,16,0.00
2013-4-28,56.9,44.5,32.9,30.2,22.1,9.1,82,46,17,29.92,29.54,15,0,15,0.00
2013-4-29,41.9,33.9,27.2,30.1,24.4,14.5,93,71,35,29.89,29.41,3,0,3,0.00
2013-4-30,33.4,27.0,21.6,24.6,20.6,15.9,89,77,60,30.37,29.89,7,0,7,0.00